This demonstration page uses our WeatherBlox Daily Observations layout. Learn more.

Left ArrowRight Arrow

Hourly Observations for September 27, 2018

Temp ( °F °C ) Dew Point ( °F °C ) Humidity (%) Winds ( mph kmh ) Pressure ( in mb ) Visibility ( mi km ) Precip ( " mm )
12:54 am 00:54 Clear 53 11.7 41 5 64 64 S 10 17 30.07 1018 10 16 N/A
1:54 am 01:54 Clear 56 13.3 41 5 57 57 S 13 20 30.04 1017 10 16 N/A
2:54 am 02:54 Clear 56 13.3 41 5 57 57 SSW 9 15 30.04 1017 10 16 N/A
3:54 am 03:54 Clear 55 12.8 41 5 59 59 SSW 10 17 30.02 1017 10 16 N/A
4:54 am 04:54 Clear 54 12.2 41 5 62 62 S 12 19 30.00 1016 10 16 N/A
5:54 am 05:54 Clear 53 11.7 41 5 64 64 SSW 8 13 30.00 1016 10 16 N/A
6:54 am 06:54 Clear 51 10.6 42 5.6 71 71 SSW 7 11 30.01 1016 10 16 N/A
7:54 am 07:54 Sunny 52 11.1 43 6.1 72 72 SSW 8 13 30.01 1016 10 16 N/A
8:54 am 08:54 Sunny 55 12.8 44 6.7 67 67 SW 10 17 30.01 1016 10 16 N/A
9:54 am 09:54 Sunny 60 15.6 44 6.7 56 56 SW 12 19 30.00 1016 10 16 N/A
10:54 am 10:54 Sunny 66 18.9 45 7.2 47 47 WSW 16 26 29.98 1015 10 16 N/A
11:54 am 11:54 Sunny 70 21.1 44 6.7 39 39 WSW 13 20 29.96 1015 10 16 N/A
12:54 pm 12:54 Sunny 73 22.8 46 7.8 38 38 SW 17 28 29.94 1014 10 16 N/A
1:54 pm 13:54 Sunny 77 25 43 6.1 30 30 WSW 14 22 29.91 1013 10 16 N/A
2:54 pm 14:54 Sunny 78 25.6 43 6.1 29 29 WSW 15 24 29.88 1012 10 16 N/A
3:54 pm 15:54 Mostly Cloudy 77 25 46 7.8 33 33 NNW 9 15 29.88 1012 10 16 N/A
4:54 pm 16:54 Sunny 77 25 45 7.2 32 32 NNW 7 11 29.88 1012 10 16 N/A
5:54 pm 17:54 Sunny 74 23.3 44 6.7 34 34 N 13 20 29.89 1012 10 16 N/A
6:54 pm 18:54 Sunny with Light Rain 67 19.4 43 6.1 42 42 N 17 28 29.93 1014 10 16 N/A
7:54 pm 19:54 Clear 64 17.8 43 6.1 46 46 N 15 24 29.96 1015 10 16 N/A
8:54 pm 20:54 Clear 62 16.7 44 6.7 52 52 N 10 17 30.00 1016 10 16 N/A
9:54 pm 21:54 Mostly Clear 59 15 46 7.8 62 62 NE 5 7 30.03 1017 10 16 N/A
10:54 pm 22:54 Clear 57 13.9 48 8.9 72 72 N 8 13 30.04 1017 10 16 N/A
11:54 pm 23:54 Clear 57 13.9 48 8.9 72 72 N 9 15 30.04 1017 10 16 N/A

Powered by AerisWeather